Miscellaneous Local Product
Issued by NWS North Platte, NE

Home | Current Version | Previous Version | Text Only | Print | Product List | Glossary On
Versions: 1 2 3 4 5 6 7 8 9 10 11 12 13 14 15 16 17 18 19 20 21 22 23 24 25 26 27 28 29 30 31 32 33 34 35 36 37 38 39 40 41 42 43 44 45 46 47 48 49 50
000
AXUS43 KLBF 241910
MISLBF


WESTERN AND NORTH CENTRAL NEBRASKA HOURLY WEATHER ROUNDUP
NATIONAL WEATHER SERVICE NORTH PLATTE NE
100 PM CST WED DEC 24 2014

***STATIONS NOT REPORTING VARIABLES SUCH AS SKY/WEATHER OR
PRESSURE ARE PROVIDED BY THE NEBRASKA DEPARTMENT OF
ROADS...RAWS...AND APRS NETWORKS...AND ARE NOT UNDER
NATIONAL WEATHER SERVICE QUALITY CONTROL***

...OBSERVATIONS IN AND NEAR THE EASTERN PANHANDLE OF NEBRASKA...

CITY           SKY/WX    TMP DP  RH WIND       PRES   REMARKS
PINE RIDGE     PTSUNNY   37  19  48 W9        29.66F WCI  30
CHADRON        CLOUDY    35  25  66 CALM      29.67F
ALLIANCE       SUNNY     39  21  48 W15       29.66F WCI  31
SIDNEY         SUNNY     34  21  59 SW14      29.72F WCI  25
WHITECLAY        N/A     37  16  42 CALM        N/A
CRESCENT LAKE    N/A     40  20  44 W10         N/A  WCI  33
LISCO            N/A     41  16  36 W8          N/A
BIG SPRINGS      N/A     35  21  57 W15         N/A  WCI  25
$$

...OBSERVATIONS IN NORTH CENTRAL NEBRASKA...

CITY           SKY/WX    TMP DP  RH WIND       PRES   REMARKS
VALENTINE      SUNNY     34  19  54 SW12      29.66F WCI  25
THEDFORD       SUNNY     37  23  58 SW8       29.71F WCI  30
AINSWORTH      SUNNY     32  22  66 S9        29.70F WCI  24
O`NEILL        SUNNY     29  24  83 S7        29.74F WCI  22
ORD            SUNNY     33  21  61 W7        29.76F WCI  27
BROKEN BOW     SUNNY     34  22  61 S6        29.75F WCI  29
BROWNLEE         N/A     32  16  51 S13         N/A  WCI  22
SPRINGVIEW       N/A     35  23  62 W5          N/A  WCI  31
BREWSTER         N/A     37  22  54 S7          N/A  WCI  32
ROSE             N/A     36  24  60 S8          N/A  WCI  30
SARGENT          N/A     34  23  63 CALM        N/A
COMSTOCK         N/A     38  23  55 W6          N/A  WCI  33
CHAMBERS         N/A     33  21  62 S5          N/A  WCI  28
EWING            N/A     30  28  92 CALM        N/A
$$

...OBSERVATIONS IN SOUTHWEST NEBRASKA AND FAR NORTHEAST COLORADO...

CITY           SKY/WX    TMP DP  RH WIND       PRES   REMARKS
WRAY           FAIR      41  20  43 MISG      29.77F
HOLYOKE        FAIR      41  21  45 W15       29.75F
IMPERIAL       SUNNY     37  18  46 SW13      29.76F WCI  29
OGALLALA       SUNNY     35  21  57 SW8       29.74F WCI  28
NORTH PLATTE   SUNNY     40  18  41 W10       29.76F WCI  33
MCCOOK         SUNNY     37  18  46 SW7       29.80F WCI  32
LEXINGTON      SUNNY     37  23  57 W8        29.79F WCI  31
PAXTON           N/A     37  25  63 SW9         N/A  WCI  30
BRADY            N/A     36  22  56 CALM        N/A
GOTHENBURG       N/A     37  21  52 SW6         N/A  WCI  32
CALLAWAY         N/A     33  27  77 SW9         N/A  WCI  25
$$

...NORTH PLATTE AREA...

CITY           SKY/WX    TMP DP  RH WIND       PRES   REMARKS
AIRPORT        SUNNY     40  18  41 W10       29.76F WCI  33
DOWNTOWN         N/A     38  21  51 SW3G12      N/A
$$

...SOME WEATHER OBSERVATIONS FROM AROUND THE REGION...

CITY           SKY/WX    TMP DP  RH WIND       PRES   REMARKS
DENVER         MOSUNNY   49  14  24 SW10      29.72F
LARAMIE        MOSUNNY   32  15  49 SW10      29.77F WCI  24
CHEYENNE       SUNNY     40  18  41 W28G41    29.70F WCI  29
SCOTTSBLUFF    SUNNY     31  22  69 E5        29.69F WCI  26
RAPID CITY     CLOUDY    32  22  66 SE5       29.61F WCI  27
PIERRE         MOSUNNY   25  19  78 SE8       29.66F WCI  16
WINNER         FAIR      30  18  60 S12       29.68F WCI  20
SIOUX FALLS    FRZ DRZL  25  24  96 NW8       29.76F FOG     WCI  16
OMAHA          CLOUDY    31  28  89 NW12      29.83F WCI  22
GRAND ISLAND   SUNNY     36  23  59 W9        29.81F WCI  29
KANSAS CITY    CLOUDY    36  32  85 NW10      29.81F WCI  28
WICHITA        PTSUNNY   38  28  67 NW8       29.91F WCI  32
HAYS           SUNNY     41  18  38 NW16      29.89F
LIBERAL        SUNNY     41  23  48 W9        29.97F
GOODLAND       SUNNY     37  17  44 SW18      29.81F WCI  27
$$



USA.gov is the U.S. government's official web portal to all federal, state and local government web resources and services.